Home > Weather > Aarhus > Past weeks

Flag for Denmark Past Weather in Aarhus, Denmark — Yesterday and Last 2 Weeks

Now
66 °F

Partly sunny.


Feels Like: 66 °F
Forecast: 60 / 76 °F
Wind: 8 mph from North

Location: Tirstrup

Current Time: May 29, 2016 at 5:36:43 PM

Latest Report: May 29, 2016 at 5:20 PM


Visibility: N/A

Pressure: 29.95 "Hg

Humidity: 68%

Dew Point: 55 °F

Location of AarhusLocation

Past Weather in Aarhus — Graph

°F

Aarhus Temperature Yesterday

Maximum temperature yesterday: 66 °F (at 2:50 PM)
Minimum temperature yesterday: 46 °F (at 3:20 AM)
Average temperature yesterday: 58 °F

High & Low Weather Summary for the Past Weeks

 TemperatureHumidityPressure
High75 °F (May 22, 3:20 PM)94% (May 21, 2:20 AM)30.12 "Hg (May 21, 2:20 AM)
Low41 °F (May 15, 5:20 AM)29% (May 16, 2:50 PM)29.68 "Hg (May 14, 4:20 PM)
Average56 °F71%29.91 "Hg
* Reported May 14 4:20 PM — May 29 4:20 PM, Aarhus, Weather by CustomWeather, © 2016

Note: Actual official high and low records may vary slightly from our data, if they occured in-between our weather recording intervals... More about our weather records

Advertising

Aarhus Weather History for the Previous 24 Hours

Scroll right to see more
 ConditionsComfort  
Time TempWeatherWind HumidityBarometerVisibility
4:20 PM
Sun, May 29
68 °FMild.10 mph60%29.95 "HgN/A
3:50 PM68 °FPassing clouds.10 mph60%29.95 "HgN/A
3:20 PM68 °FMild.10 mph60%29.95 "HgN/A
2:50 PM68 °FMild.10 mph60%29.98 "HgN/A
2:20 PM66 °FMild.12 mph60%29.98 "HgN/A
1:50 PM66 °FMild.13 mph60%29.98 "HgN/A
1:20 PM68 °FPassing clouds.13 mph60%29.98 "HgN/A
12:50 PM68 °FScattered clouds.12 mph56%29.98 "HgN/A
12:20 PM68 °FPassing clouds.9 mph60%29.98 "HgN/A
11:50 AM66 °FPassing clouds.9 mph64%29.98 "HgN/A
11:20 AM66 °FPassing clouds.8 mph64%29.98 "HgN/A
10:50 AM66 °FPartly sunny.9 mph64%29.98 "HgN/A
10:20 AM64 °FPassing clouds.9 mph68%29.98 "HgN/A
9:50 AM64 °FScattered clouds.7 mph68%29.98 "HgN/A
9:20 AM63 °FPartly sunny.6 mph73%29.98 "HgN/A
8:50 AM63 °FPartly sunny.8 mph73%29.98 "HgN/A
8:20 AM61 °FPartly sunny.7 mph88%30.01 "HgN/A
7:50 AM59 °FPassing clouds.3 mph94%30.01 "HgN/A
7:20 AM57 °FCool.1 mph94%29.98 "Hg4 mi
6:50 AM54 °FScattered clouds.1 mph94%30.01 "Hg3 mi
6:20 AM50 °FFog.No wind94%30.01 "Hg0 mi
5:50 AM50 °FFog.1 mph88%30.01 "Hg0 mi
5:20 AM48 °FFog.No wind87%30.01 "Hg0 mi
4:50 AM48 °FFog.No wind87%30.01 "Hg1 mi
4:20 AM48 °FFog.No wind87%30.01 "Hg0 mi
3:50 AM50 °FFog.1 mph88%30.01 "Hg0 mi
3:20 AM52 °FDense fog.1 mph82%30.01 "Hg0 mi
2:50 AM52 °FLight fog.1 mph88%30.01 "Hg1 mi
2:20 AM52 °FCool.1 mph82%30.04 "Hg4 mi
1:50 AM55 °FFog.1 mph88%30.04 "Hg1 mi
1:20 AM55 °FFog.2 mph82%30.04 "Hg3 mi
12:50 AM55 °FCool.2 mph82%30.04 "Hg5 mi
12:20 AM55 °FPassing clouds.2 mph82%30.04 "HgN/A
11:50 PM
Sat, May 28
55 °FPassing clouds.3 mph88%30.04 "HgN/A
11:20 PM55 °FPassing clouds.3 mph82%30.07 "HgN/A
10:50 PM57 °FPassing clouds.3 mph82%30.07 "HgN/A
10:20 PM57 °FPassing clouds.5 mph82%30.07 "HgN/A
9:50 PM57 °FCool.5 mph77%30.07 "HgN/A
9:20 PM59 °FPassing clouds.3 mph72%30.07 "HgN/A
8:50 PM59 °FPassing clouds.5 mph77%30.07 "HgN/A
8:20 PM61 °FScattered clouds.5 mph68%30.07 "HgN/A
7:50 PM63 °FPartly sunny.7 mph59%30.04 "HgN/A
7:20 PM64 °FOvercast.6 mph56%30.07 "HgN/A
6:50 PM64 °FOvercast.7 mph52%30.07 "HgN/A
6:20 PM64 °FBroken clouds.8 mph52%30.07 "HgN/A
5:50 PM66 °FScattered clouds.8 mph52%30.07 "HgN/A
5:20 PM66 °FPartly sunny.9 mph52%30.07 "HgN/A
Weather by CustomWeather, © 2016

See weather overviewHow to use our weather pages